Portada
METAR-TAF:

METAR-TAF

Aeroports :

Logan County Airport

Lincoln, Illinois, Estats Units d'Amèrica

latitud: 40-09-31N, longitud: 089-20-06W, altitud: 182 m

Observació

L'informe es va fer fa 16 minuts, a les 18:35 UTC
Vent 5 kt del Sud/Sud-Oest
Temperatura 33°C
Humitat 46%
Pressió 1025 hPa
Visibilitat: 16.1 km
Núvols disperses a una alçada de 5000 ft

METAR: KAAA 201835Z AUTO 20005KT 10SM SCT050 33/20 A3027 RMK AO2 T03300204

Hora: 13:51 (18:51 UTC)


TAF: manca

Observacions i pronòstics meteorològics de més de 4000 aeroports (METAR i TAF).

Les estacions disponibles són els punts grocs i vermells al mapa.

Posi el ratolí al punt desitjat per veure el nom de l'estació.

Feu clic per veure les observacions i els pronòstics meteorològics.

Per canviar el mapa: feu clic els botons verds amb una creu de color negre per apropar; al botó verd amb un guió per allunyar la imatge; o en les fletxes verdes per a mapes adjacents.


METAR-TAF: